Year,Month,Day,Hour,Minute,Value (Times are PST for temperature in C)
2015,04,03,00,00,6.40
2015,04,03,00,01,6.40
2015,04,03,00,02,6.30
2015,04,03,00,03,6.40
2015,04,03,00,04,6.40
2015,04,03,00,05,6.30
2015,04,03,00,06,6.30
2015,04,03,00,07,6.30
2015,04,03,00,08,6.30
2015,04,03,00,09,6.30
2015,04,03,00,10,6.30
2015,04,03,00,11,6.30
2015,04,03,00,12,6.30
2015,04,03,00,13,6.30
2015,04,03,00,14,6.20
2015,04,03,00,15,6.20
2015,04,03,00,16,6.20
2015,04,03,00,17,6.20
2015,04,03,00,18,6.20
2015,04,03,00,19,6.20
2015,04,03,00,20,6.20
2015,04,03,00,21,6.20
2015,04,03,00,22,6.20
2015,04,03,00,23,6.20
2015,04,03,00,24,6.20
2015,04,03,00,25,6.20
2015,04,03,00,26,6.20
2015,04,03,00,27,6.20
2015,04,03,00,28,6.10
2015,04,03,00,29,6.10
2015,04,03,00,30,6.10
2015,04,03,00,31,6.10
2015,04,03,00,32,6.10
2015,04,03,00,33,6.10
2015,04,03,00,34,6.10
2015,04,03,00,35,6.10
2015,04,03,00,36,6.10
2015,04,03,00,37,6.10
2015,04,03,00,38,6.10
2015,04,03,00,39,6.10
2015,04,03,00,40,6.10
2015,04,03,00,41,6.10
2015,04,03,00,42,6.10
2015,04,03,00,43,6.10
2015,04,03,00,44,6.10
2015,04,03,00,45,6.10
2015,04,03,00,46,6.00
2015,04,03,00,47,6.00
2015,04,03,00,48,6.00
2015,04,03,00,49,6.00
2015,04,03,00,50,6.00
2015,04,03,00,51,6.00
2015,04,03,00,52,6.00
2015,04,03,00,53,5.90
2015,04,03,00,54,5.90
2015,04,03,00,55,5.90
2015,04,03,00,56,5.90
2015,04,03,00,57,5.90
2015,04,03,00,58,5.90
2015,04,03,00,59,5.90
2015,04,03,01,00,5.90
2015,04,03,01,01,5.80
2015,04,03,01,02,5.80
2015,04,03,01,03,5.80
2015,04,03,01,04,5.80
2015,04,03,01,05,5.80
2015,04,03,01,06,5.80
2015,04,03,01,07,5.80
2015,04,03,01,08,5.80
2015,04,03,01,09,5.70
2015,04,03,01,10,5.70
2015,04,03,01,11,5.70
2015,04,03,01,12,5.70
2015,04,03,01,13,5.70
2015,04,03,01,14,5.70
2015,04,03,01,15,5.70
2015,04,03,01,16,5.70
2015,04,03,01,17,5.70
2015,04,03,01,18,5.70
2015,04,03,01,19,5.70
2015,04,03,01,20,5.70
2015,04,03,01,21,5.70
2015,04,03,01,22,5.70
2015,04,03,01,23,5.70
2015,04,03,01,24,5.70
2015,04,03,01,25,5.70
2015,04,03,01,26,5.70
2015,04,03,01,27,5.60
2015,04,03,01,28,5.70
2015,04,03,01,29,5.60
2015,04,03,01,30,5.60
2015,04,03,01,31,5.60
2015,04,03,01,32,5.60
2015,04,03,01,33,5.60
2015,04,03,01,34,5.60
2015,04,03,01,35,5.60
2015,04,03,01,36,5.60
2015,04,03,01,37,5.60
2015,04,03,01,38,5.60
2015,04,03,01,39,5.60
2015,04,03,01,40,5.60
2015,04,03,01,41,5.60
2015,04,03,01,42,5.60
2015,04,03,01,43,5.60
2015,04,03,01,44,5.60
2015,04,03,01,45,5.60
2015,04,03,01,46,5.60
2015,04,03,01,47,5.50
2015,04,03,01,48,5.50
2015,04,03,01,49,5.50
2015,04,03,01,50,5.50
2015,04,03,01,51,5.50
2015,04,03,01,52,5.50
2015,04,03,01,53,5.50
2015,04,03,01,54,5.50
2015,04,03,01,55,5.50
2015,04,03,01,56,5.40
2015,04,03,01,57,5.50
2015,04,03,01,58,5.40
2015,04,03,01,59,5.40
2015,04,03,02,00,5.40
2015,04,03,02,01,5.40
2015,04,03,02,02,5.40
2015,04,03,02,03,5.40
2015,04,03,02,04,5.40
2015,04,03,02,05,5.40
2015,04,03,02,06,5.40
2015,04,03,02,07,5.40
2015,04,03,02,08,5.40
2015,04,03,02,09,5.40
2015,04,03,02,10,5.40
2015,04,03,02,11,5.40
2015,04,03,02,12,5.40
2015,04,03,02,13,5.40
2015,04,03,02,14,5.40
2015,04,03,02,15,5.40
2015,04,03,02,16,5.40
2015,04,03,02,17,5.40
2015,04,03,02,18,5.40
2015,04,03,02,19,5.40
2015,04,03,02,20,5.40
2015,04,03,02,21,5.40
2015,04,03,02,22,5.40
2015,04,03,02,23,5.40
2015,04,03,02,24,5.40
2015,04,03,02,25,5.40
2015,04,03,02,26,5.40
2015,04,03,02,27,5.40
2015,04,03,02,28,5.40
2015,04,03,02,29,5.40
2015,04,03,02,30,5.40
2015,04,03,02,31,5.40
2015,04,03,02,32,5.40
2015,04,03,02,33,5.40
2015,04,03,02,34,5.40
2015,04,03,02,35,5.40
2015,04,03,02,36,5.40
2015,04,03,02,37,5.40
2015,04,03,02,38,5.40
2015,04,03,02,39,5.40
2015,04,03,02,40,5.40
2015,04,03,02,41,5.40
2015,04,03,02,42,5.40
2015,04,03,02,43,5.40
2015,04,03,02,44,5.40
2015,04,03,02,45,5.40
2015,04,03,02,46,5.40
2015,04,03,02,47,5.40
2015,04,03,02,48,5.40
2015,04,03,02,49,5.40
2015,04,03,02,50,5.40
2015,04,03,02,51,5.40
2015,04,03,02,52,5.40
2015,04,03,02,53,5.40
2015,04,03,02,54,5.40
2015,04,03,02,55,5.40
2015,04,03,02,56,5.40
2015,04,03,02,57,5.40
2015,04,03,02,58,5.40
2015,04,03,02,59,5.40
2015,04,03,03,00,5.40
2015,04,03,03,01,5.40
2015,04,03,03,02,5.40
2015,04,03,03,03,5.30
2015,04,03,03,04,5.40
2015,04,03,03,05,5.40
2015,04,03,03,06,5.40
2015,04,03,03,07,5.30
2015,04,03,03,08,5.40
2015,04,03,03,09,5.40
2015,04,03,03,10,5.40
2015,04,03,03,11,5.40
2015,04,03,03,12,5.40
2015,04,03,03,13,5.40
2015,04,03,03,14,5.40
2015,04,03,03,15,5.40
2015,04,03,03,16,5.40
2015,04,03,03,17,5.40
2015,04,03,03,18,5.40
2015,04,03,03,19,5.40
2015,04,03,03,20,5.40
2015,04,03,03,21,5.40
2015,04,03,03,22,5.40
2015,04,03,03,23,5.40
2015,04,03,03,24,5.40
2015,04,03,03,25,5.40
2015,04,03,03,26,5.40
2015,04,03,03,27,5.40
2015,04,03,03,28,5.40
2015,04,03,03,29,5.40
2015,04,03,03,30,5.40
2015,04,03,03,31,5.40
2015,04,03,03,32,5.40
2015,04,03,03,33,5.50
2015,04,03,03,34,5.40
2015,04,03,03,35,5.40
2015,04,03,03,36,5.50
2015,04,03,03,37,5.50
2015,04,03,03,38,5.40
2015,04,03,03,39,5.40
2015,04,03,03,40,5.40
2015,04,03,03,41,5.40
2015,04,03,03,42,5.40
2015,04,03,03,43,5.40
2015,04,03,03,44,5.40
2015,04,03,03,45,5.40
2015,04,03,03,46,5.40
2015,04,03,03,47,5.40
2015,04,03,03,48,5.40
2015,04,03,03,49,5.40
2015,04,03,03,50,5.40
2015,04,03,03,51,5.40
2015,04,03,03,52,5.40
2015,04,03,03,53,5.40
2015,04,03,03,54,5.40
2015,04,03,03,55,5.40
2015,04,03,03,56,5.40
2015,04,03,03,57,5.40
2015,04,03,03,58,5.40
2015,04,03,03,59,5.40
2015,04,03,04,00,5.40
2015,04,03,04,01,5.40
2015,04,03,04,02,5.40
2015,04,03,04,03,5.40
2015,04,03,04,04,5.40
2015,04,03,04,05,5.40
2015,04,03,04,06,5.40
2015,04,03,04,07,5.40
2015,04,03,04,08,5.40
2015,04,03,04,09,5.40
2015,04,03,04,10,5.40
2015,04,03,04,11,5.40
2015,04,03,04,12,5.40
2015,04,03,04,13,5.40
2015,04,03,04,14,5.40
2015,04,03,04,15,5.40
2015,04,03,04,16,5.40
2015,04,03,04,17,5.40
2015,04,03,04,18,5.40
2015,04,03,04,19,5.40
2015,04,03,04,20,5.40
2015,04,03,04,21,5.40
2015,04,03,04,22,5.40
2015,04,03,04,23,5.40
2015,04,03,04,24,5.40
2015,04,03,04,25,5.40
2015,04,03,04,26,5.40
2015,04,03,04,27,5.40
2015,04,03,04,28,5.40
2015,04,03,04,29,5.40
2015,04,03,04,30,5.40
2015,04,03,04,31,5.40
2015,04,03,04,32,5.40
2015,04,03,04,33,5.40
2015,04,03,04,34,5.40
2015,04,03,04,35,5.30
2015,04,03,04,36,5.30
2015,04,03,04,37,5.30
2015,04,03,04,38,5.30
2015,04,03,04,39,5.30
2015,04,03,04,40,5.30
2015,04,03,04,41,5.30
2015,04,03,04,42,5.30
2015,04,03,04,43,5.30
2015,04,03,04,44,5.30
2015,04,03,04,45,5.30
2015,04,03,04,46,5.30
2015,04,03,04,47,5.30
2015,04,03,04,48,5.30
2015,04,03,04,49,5.30
2015,04,03,04,50,5.40
2015,04,03,04,51,5.40
2015,04,03,04,52,5.30
2015,04,03,04,53,5.30
2015,04,03,04,54,5.30
2015,04,03,04,55,5.30
2015,04,03,04,56,5.30
2015,04,03,04,57,5.30
2015,04,03,04,58,5.30
2015,04,03,04,59,5.30
2015,04,03,05,00,5.30
2015,04,03,05,01,5.40
2015,04,03,05,02,5.40
2015,04,03,05,03,5.40
2015,04,03,05,04,5.40
2015,04,03,05,05,5.40
2015,04,03,05,06,5.40
2015,04,03,05,07,5.40
2015,04,03,05,08,5.40
2015,04,03,05,09,5.40
2015,04,03,05,10,5.40
2015,04,03,05,11,5.40
2015,04,03,05,12,5.40
2015,04,03,05,13,5.40
2015,04,03,05,14,5.40
2015,04,03,05,15,5.40
2015,04,03,05,16,5.40
2015,04,03,05,17,5.40
2015,04,03,05,18,5.40
2015,04,03,05,19,5.40
2015,04,03,05,20,5.40
2015,04,03,05,21,5.40
2015,04,03,05,22,5.40
2015,04,03,05,23,5.30
2015,04,03,05,24,5.40
2015,04,03,05,25,5.30
2015,04,03,05,26,5.40
2015,04,03,05,27,5.30
2015,04,03,05,28,5.30
2015,04,03,05,29,5.30
2015,04,03,05,30,5.30
2015,04,03,05,31,5.30
2015,04,03,05,32,5.30
2015,04,03,05,33,5.30
2015,04,03,05,34,5.30
2015,04,03,05,35,5.30
2015,04,03,05,36,5.30
2015,04,03,05,37,5.30
2015,04,03,05,38,5.30
2015,04,03,05,39,5.30
2015,04,03,05,40,5.30
2015,04,03,05,41,5.30
2015,04,03,05,42,5.30
2015,04,03,05,43,5.20
2015,04,03,05,44,5.20
2015,04,03,05,45,5.20
2015,04,03,05,46,5.20
2015,04,03,05,47,5.20
2015,04,03,05,48,5.10
2015,04,03,05,49,5.10
2015,04,03,05,50,5.00
2015,04,03,05,51,5.00
2015,04,03,05,52,4.90
2015,04,03,05,53,4.90
2015,04,03,05,54,4.90
2015,04,03,05,55,4.80
2015,04,03,05,56,4.80
2015,04,03,05,57,4.80
2015,04,03,05,58,4.80
2015,04,03,05,59,4.80
2015,04,03,06,00,4.70
2015,04,03,06,01,4.70
2015,04,03,06,02,4.60
2015,04,03,06,03,4.60
2015,04,03,06,04,4.50
2015,04,03,06,05,4.50
2015,04,03,06,06,4.50
2015,04,03,06,07,4.40
2015,04,03,06,08,4.40
2015,04,03,06,09,4.30
2015,04,03,06,10,4.30
2015,04,03,06,11,4.30
2015,04,03,06,12,4.30
2015,04,03,06,13,4.20
2015,04,03,06,14,4.20
2015,04,03,06,15,4.20
2015,04,03,06,16,4.10
2015,04,03,06,17,4.10
2015,04,03,06,18,4.10
2015,04,03,06,19,4.10
2015,04,03,06,20,4.00
2015,04,03,06,21,3.90
2015,04,03,06,22,3.90
2015,04,03,06,23,3.90
2015,04,03,06,24,3.80
2015,04,03,06,25,3.80
2015,04,03,06,26,3.80
2015,04,03,06,27,3.70
2015,04,03,06,28,3.70
2015,04,03,06,29,3.70
2015,04,03,06,30,3.60
2015,04,03,06,31,3.60
2015,04,03,06,32,3.60
2015,04,03,06,33,3.60
2015,04,03,06,34,3.50
2015,04,03,06,35,3.50
2015,04,03,06,36,3.40
2015,04,03,06,37,3.40
2015,04,03,06,38,3.40
2015,04,03,06,39,3.40
2015,04,03,06,40,3.30
2015,04,03,06,41,3.30
2015,04,03,06,42,3.30
2015,04,03,06,43,3.30
2015,04,03,06,44,3.30
2015,04,03,06,45,3.30
2015,04,03,06,46,3.20
2015,04,03,06,47,3.20
2015,04,03,06,48,3.20
2015,04,03,06,49,3.20
2015,04,03,06,50,3.20
2015,04,03,06,51,3.20
2015,04,03,06,52,3.20
2015,04,03,06,53,3.20
2015,04,03,06,54,3.20
2015,04,03,06,55,3.20
2015,04,03,06,56,3.20
2015,04,03,06,57,3.10
2015,04,03,06,58,3.20
2015,04,03,06,59,3.20
2015,04,03,07,00,3.20
2015,04,03,07,01,3.20
2015,04,03,07,02,3.20
2015,04,03,07,03,3.20
2015,04,03,07,04,3.20
2015,04,03,07,05,3.20
2015,04,03,07,06,3.20
2015,04,03,07,07,3.20
2015,04,03,07,08,3.20
2015,04,03,07,09,3.20
2015,04,03,07,10,3.20
2015,04,03,07,11,3.10
2015,04,03,07,12,3.10
2015,04,03,07,13,3.10
2015,04,03,07,14,3.10
2015,04,03,07,15,3.10
2015,04,03,07,16,3.00
2015,04,03,07,17,3.00
2015,04,03,07,18,3.00
2015,04,03,07,19,3.00
2015,04,03,07,20,3.00
2015,04,03,07,21,3.00
2015,04,03,07,22,2.90
2015,04,03,07,23,2.90
2015,04,03,07,24,2.90
2015,04,03,07,25,2.90
2015,04,03,07,26,2.90
2015,04,03,07,27,2.90
2015,04,03,07,28,2.90
2015,04,03,07,29,2.90
2015,04,03,07,30,2.90
2015,04,03,07,31,2.90
2015,04,03,07,32,2.90
2015,04,03,07,33,2.90
2015,04,03,07,34,2.90
2015,04,03,07,35,2.90
2015,04,03,07,36,2.90
2015,04,03,07,37,2.90
2015,04,03,07,38,2.90
2015,04,03,07,39,2.90
2015,04,03,07,40,2.90
2015,04,03,07,41,2.90
2015,04,03,07,42,2.90
2015,04,03,07,43,2.90
2015,04,03,07,44,2.90
2015,04,03,07,45,2.90
2015,04,03,07,46,2.90
2015,04,03,07,47,2.90
2015,04,03,07,48,2.80
2015,04,03,07,49,2.80
2015,04,03,07,50,2.80
2015,04,03,07,51,2.80
2015,04,03,07,52,2.80
2015,04,03,07,53,2.80
2015,04,03,07,54,2.70
2015,04,03,07,55,2.70
2015,04,03,07,56,2.70
2015,04,03,07,57,2.70
2015,04,03,07,58,2.70
2015,04,03,07,59,2.70
2015,04,03,08,00,2.70
2015,04,03,08,01,2.70
2015,04,03,08,02,2.70
2015,04,03,08,03,2.70
2015,04,03,08,04,2.70
2015,04,03,08,05,2.70
2015,04,03,08,06,2.60
2015,04,03,08,07,2.60
2015,04,03,08,08,2.60
2015,04,03,08,09,2.60
2015,04,03,08,10,2.60
2015,04,03,08,11,2.60
2015,04,03,08,12,2.60
2015,04,03,08,13,2.60
2015,04,03,08,14,2.60
2015,04,03,08,15,2.60
2015,04,03,08,16,2.60
2015,04,03,08,17,2.60
2015,04,03,08,18,2.60
2015,04,03,08,19,2.60
2015,04,03,08,20,2.60
2015,04,03,08,21,2.60
2015,04,03,08,22,2.50
2015,04,03,08,23,2.60
2015,04,03,08,24,2.60
2015,04,03,08,25,2.60
2015,04,03,08,26,2.60
2015,04,03,08,27,2.60
2015,04,03,08,28,2.50
2015,04,03,08,29,2.50
2015,04,03,08,30,2.50
2015,04,03,08,31,2.50
2015,04,03,08,32,2.50
2015,04,03,08,33,2.40
2015,04,03,08,34,2.40
2015,04,03,08,35,2.40
2015,04,03,08,36,2.40
2015,04,03,08,37,2.40
2015,04,03,08,38,2.40
2015,04,03,08,39,2.40
2015,04,03,08,40,2.40
2015,04,03,08,41,2.40
2015,04,03,08,42,2.40
2015,04,03,08,43,2.40
2015,04,03,08,44,2.40
2015,04,03,08,45,2.40
2015,04,03,08,46,2.40
2015,04,03,08,47,2.40
2015,04,03,08,48,2.40
2015,04,03,08,49,2.40
2015,04,03,08,50,2.40
2015,04,03,08,51,2.40
2015,04,03,08,52,2.40
2015,04,03,08,53,2.40
2015,04,03,08,54,2.30
2015,04,03,08,55,2.30
2015,04,03,08,56,2.30
2015,04,03,08,57,2.30
2015,04,03,08,58,2.30
2015,04,03,08,59,2.30
2015,04,03,09,00,2.30
2015,04,03,09,01,2.20
2015,04,03,09,02,2.20
2015,04,03,09,03,2.20
2015,04,03,09,04,2.20
2015,04,03,09,05,2.20
2015,04,03,09,06,2.20
2015,04,03,09,07,2.10
2015,04,03,09,08,2.10
2015,04,03,09,09,2.10
2015,04,03,09,10,2.10
2015,04,03,09,11,2.10
2015,04,03,09,12,2.10
2015,04,03,09,13,2.10
2015,04,03,09,14,2.10
2015,04,03,09,15,2.10
2015,04,03,09,16,2.10
2015,04,03,09,17,2.10
2015,04,03,09,18,2.00
2015,04,03,09,19,2.00
2015,04,03,09,20,2.00
2015,04,03,09,21,2.00
2015,04,03,09,22,1.90
2015,04,03,09,23,1.90
2015,04,03,09,24,1.90
2015,04,03,09,25,1.90
2015,04,03,09,26,1.90
2015,04,03,09,27,1.90
2015,04,03,09,28,1.80
2015,04,03,09,29,1.80
2015,04,03,09,30,1.80
2015,04,03,09,31,1.80
2015,04,03,09,32,1.80
2015,04,03,09,33,1.80
2015,04,03,09,34,1.80
2015,04,03,09,35,1.70
2015,04,03,09,36,1.70
2015,04,03,09,37,1.70
2015,04,03,09,38,1.70
2015,04,03,09,39,1.70
2015,04,03,09,40,1.60
2015,04,03,09,41,1.60
2015,04,03,09,42,1.60
2015,04,03,09,43,1.60
2015,04,03,09,44,1.60
2015,04,03,09,45,1.60
2015,04,03,09,46,1.60
2015,04,03,09,47,1.60
2015,04,03,09,48,1.50
2015,04,03,09,49,1.50
2015,04,03,09,50,1.50
2015,04,03,09,51,1.50
2015,04,03,09,52,1.40
2015,04,03,09,53,1.40
2015,04,03,09,54,1.40
2015,04,03,09,55,1.40
2015,04,03,09,56,1.40
2015,04,03,09,57,1.40
2015,04,03,09,58,1.40
2015,04,03,09,59,1.40
2015,04,03,10,00,1.40
2015,04,03,10,01,1.40
2015,04,03,10,02,1.40
2015,04,03,10,03,1.40
2015,04,03,10,04,1.40
2015,04,03,10,05,1.40
2015,04,03,10,06,1.40
2015,04,03,10,07,1.50
2015,04,03,10,08,1.50
2015,04,03,10,09,1.50
2015,04,03,10,10,1.50
2015,04,03,10,11,1.50
2015,04,03,10,12,1.50
2015,04,03,10,13,1.40
2015,04,03,10,14,1.50
2015,04,03,10,15,1.50
2015,04,03,10,16,1.50
2015,04,03,10,17,1.50
2015,04,03,10,18,1.50
2015,04,03,10,19,1.50
2015,04,03,10,20,1.50
2015,04,03,10,21,1.50
2015,04,03,10,22,1.50
2015,04,03,10,23,1.60
2015,04,03,10,24,1.60
2015,04,03,10,25,1.60
2015,04,03,10,26,1.60
2015,04,03,10,27,1.60
2015,04,03,10,28,1.60
2015,04,03,10,29,1.60
2015,04,03,10,30,1.70
2015,04,03,10,31,1.70
2015,04,03,10,32,1.70
2015,04,03,10,33,1.60
2015,04,03,10,34,1.60
2015,04,03,10,35,1.60
2015,04,03,10,36,1.60
2015,04,03,10,37,1.60
2015,04,03,10,38,1.60
2015,04,03,10,39,1.60
2015,04,03,10,40,1.70
2015,04,03,10,41,1.70
2015,04,03,10,42,1.70
2015,04,03,10,43,1.70
2015,04,03,10,44,1.80
2015,04,03,10,45,1.80
2015,04,03,10,46,1.80
2015,04,03,10,47,1.80
2015,04,03,10,48,1.80
2015,04,03,10,49,1.80
2015,04,03,10,50,1.80
2015,04,03,10,51,1.90
2015,04,03,10,52,1.90
2015,04,03,10,53,1.90
2015,04,03,10,54,1.90
2015,04,03,10,55,1.90
2015,04,03,10,56,1.90
2015,04,03,10,57,1.90
2015,04,03,10,58,2.00
2015,04,03,10,59,2.00
2015,04,03,11,00,2.00
2015,04,03,11,01,2.10
2015,04,03,11,02,2.10
2015,04,03,11,03,2.10
2015,04,03,11,04,2.10
2015,04,03,11,05,2.10
2015,04,03,11,06,2.10
2015,04,03,11,07,2.10
2015,04,03,11,08,2.10
2015,04,03,11,09,2.10
2015,04,03,11,10,2.10
2015,04,03,11,11,2.20
2015,04,03,11,12,2.20
2015,04,03,11,13,2.20
2015,04,03,11,14,2.20
2015,04,03,11,15,2.20
2015,04,03,11,16,2.20
2015,04,03,11,17,2.20
2015,04,03,11,18,2.30
2015,04,03,11,19,2.30
2015,04,03,11,20,2.30
2015,04,03,11,21,2.30
2015,04,03,11,22,2.30
2015,04,03,11,23,2.30
2015,04,03,11,24,2.20
2015,04,03,11,25,2.20
2015,04,03,11,26,2.20
2015,04,03,11,27,2.20
2015,04,03,11,28,2.30
2015,04,03,11,29,2.30
2015,04,03,11,30,2.30
2015,04,03,11,31,2.30
2015,04,03,11,32,2.30
2015,04,03,11,33,2.30
2015,04,03,11,34,2.30
2015,04,03,11,35,2.30
2015,04,03,11,36,2.40
2015,04,03,11,37,2.40
2015,04,03,11,38,2.40
2015,04,03,11,39,2.40
2015,04,03,11,40,2.40
2015,04,03,11,41,2.50
2015,04,03,11,42,2.50
2015,04,03,11,43,2.50
2015,04,03,11,44,2.50
2015,04,03,11,45,2.60
2015,04,03,11,46,2.60
2015,04,03,11,47,2.60
2015,04,03,11,48,2.60
2015,04,03,11,49,2.60
2015,04,03,11,50,2.60
2015,04,03,11,51,2.70
2015,04,03,11,52,2.70
2015,04,03,11,53,2.70
2015,04,03,11,54,2.70
2015,04,03,11,55,2.70
2015,04,03,11,56,2.70
2015,04,03,11,57,2.70
2015,04,03,11,58,2.70
2015,04,03,11,59,2.70
2015,04,03,12,00,2.70
2015,04,03,12,01,2.70
2015,04,03,12,02,2.60
2015,04,03,12,03,2.70
2015,04,03,12,04,2.70
2015,04,03,12,05,2.70
2015,04,03,12,06,2.80
2015,04,03,12,07,2.80
2015,04,03,12,08,2.80
2015,04,03,12,09,2.80
2015,04,03,12,10,2.80
2015,04,03,12,11,2.80
2015,04,03,12,12,2.80
2015,04,03,12,13,2.80
2015,04,03,12,14,2.80
2015,04,03,12,15,2.90
2015,04,03,12,16,2.90
2015,04,03,12,17,2.90
2015,04,03,12,18,2.90
2015,04,03,12,19,3.00
2015,04,03,12,20,3.00
2015,04,03,12,21,3.00
2015,04,03,12,22,3.10
2015,04,03,12,23,3.10
2015,04,03,12,24,3.10
2015,04,03,12,25,3.10
2015,04,03,12,26,3.10
2015,04,03,12,27,3.10
2015,04,03,12,28,3.10
2015,04,03,12,29,3.10
2015,04,03,12,30,3.10
2015,04,03,12,31,3.10
2015,04,03,12,32,3.10
2015,04,03,12,33,3.10
2015,04,03,12,34,3.10
2015,04,03,12,35,3.20
2015,04,03,12,36,3.20
2015,04,03,12,37,3.20
2015,04,03,12,38,3.20
2015,04,03,12,39,3.20
2015,04,03,12,40,3.20
2015,04,03,12,41,3.20
2015,04,03,12,42,3.20
2015,04,03,12,43,3.20
2015,04,03,12,44,3.20
2015,04,03,12,45,3.20
2015,04,03,12,46,3.20
2015,04,03,12,47,3.20
2015,04,03,12,48,3.20
2015,04,03,12,49,3.30
2015,04,03,12,50,3.30
2015,04,03,12,51,3.30
2015,04,03,12,52,3.30
2015,04,03,12,53,3.30
2015,04,03,12,54,3.40
2015,04,03,12,55,3.40
2015,04,03,12,56,3.40
2015,04,03,12,57,3.50
2015,04,03,12,58,3.50
2015,04,03,12,59,3.50
2015,04,03,13,00,3.60
2015,04,03,13,01,3.60
2015,04,03,13,02,3.60
2015,04,03,13,03,3.60
2015,04,03,13,04,3.60
2015,04,03,13,05,3.60
2015,04,03,13,06,3.60
2015,04,03,13,07,3.60
2015,04,03,13,08,3.60
2015,04,03,13,09,3.70
2015,04,03,13,10,3.70
2015,04,03,13,11,3.70
2015,04,03,13,12,3.70
2015,04,03,13,13,3.80
2015,04,03,13,14,3.80
2015,04,03,13,15,3.80
2015,04,03,13,16,3.80
2015,04,03,13,17,3.90
2015,04,03,13,18,3.90
2015,04,03,13,19,3.90
2015,04,03,13,20,4.00
2015,04,03,13,21,4.00
2015,04,03,13,22,4.00
2015,04,03,13,23,4.10
2015,04,03,13,24,4.10
2015,04,03,13,25,4.20
2015,04,03,13,26,4.20
2015,04,03,13,27,4.20
2015,04,03,13,28,4.20
2015,04,03,13,29,4.20
2015,04,03,13,30,4.20
2015,04,03,13,31,4.20
2015,04,03,13,32,4.30
2015,04,03,13,33,4.30
2015,04,03,13,34,4.40
2015,04,03,13,35,4.40
2015,04,03,13,36,4.40
2015,04,03,13,37,4.40
2015,04,03,13,38,4.50
2015,04,03,13,39,4.50
2015,04,03,13,40,4.60
2015,04,03,13,41,4.70
2015,04,03,13,42,4.80
2015,04,03,13,43,4.90
2015,04,03,13,44,5.00
2015,04,03,13,45,5.20
2015,04,03,13,46,5.40
2015,04,03,13,47,5.60
2015,04,03,13,48,5.70
2015,04,03,13,49,5.90
2015,04,03,13,50,6.00
2015,04,03,13,51,6.10
2015,04,03,13,52,6.20
2015,04,03,13,53,6.20
2015,04,03,13,54,6.30
2015,04,03,13,55,6.40
2015,04,03,13,56,6.50
2015,04,03,13,57,6.70
2015,04,03,13,58,6.80
2015,04,03,13,59,6.80
2015,04,03,14,00,6.80
2015,04,03,14,01,6.80
2015,04,03,14,02,6.70
2015,04,03,14,03,6.70
2015,04,03,14,04,6.70
2015,04,03,14,05,6.70
2015,04,03,14,06,6.70
2015,04,03,14,07,6.70
2015,04,03,14,08,6.70
2015,04,03,14,09,6.70
2015,04,03,14,10,6.70
2015,04,03,14,11,6.70
2015,04,03,14,12,6.70
2015,04,03,14,13,6.70
2015,04,03,14,14,6.70
2015,04,03,14,15,6.70
2015,04,03,14,16,6.80
2015,04,03,14,17,6.80
2015,04,03,14,18,6.90
2015,04,03,14,19,7.10
2015,04,03,14,20,7.20
2015,04,03,14,21,7.30
2015,04,03,14,22,7.30
2015,04,03,14,23,7.40
2015,04,03,14,24,7.40
2015,04,03,14,25,7.50
2015,04,03,14,26,7.50
2015,04,03,14,27,7.50
2015,04,03,14,28,7.50
2015,04,03,14,29,7.50
2015,04,03,14,30,7.50
2015,04,03,14,31,7.50
2015,04,03,14,32,7.50
2015,04,03,14,33,7.40
2015,04,03,14,34,7.30
2015,04,03,14,35,7.30
2015,04,03,14,36,7.20
2015,04,03,14,37,7.20
2015,04,03,14,38,7.20
2015,04,03,14,39,7.10
2015,04,03,14,40,7.10
2015,04,03,14,41,7.10
2015,04,03,14,42,7.10
2015,04,03,14,43,7.10
2015,04,03,14,44,7.10
2015,04,03,14,45,7.20
2015,04,03,14,46,7.20
2015,04,03,14,47,7.20
2015,04,03,14,48,7.30
2015,04,03,14,49,7.30
2015,04,03,14,50,7.40
2015,04,03,14,51,7.40
2015,04,03,14,52,7.50
2015,04,03,14,53,7.60
2015,04,03,14,54,7.60
2015,04,03,14,55,7.70
2015,04,03,14,56,7.70
2015,04,03,14,57,7.70
2015,04,03,14,58,7.70
2015,04,03,14,59,7.70
2015,04,03,15,00,7.80
2015,04,03,15,01,7.80
2015,04,03,15,02,7.90
2015,04,03,15,03,8.00
2015,04,03,15,04,8.10
2015,04,03,15,05,8.10
2015,04,03,15,06,8.10
2015,04,03,15,07,8.10
2015,04,03,15,08,8.00
2015,04,03,15,09,7.90
2015,04,03,15,10,7.90
2015,04,03,15,11,7.80
2015,04,03,15,12,7.80
2015,04,03,15,13,7.90
2015,04,03,15,14,7.80
2015,04,03,15,15,7.80
2015,04,03,15,16,7.90
2015,04,03,15,17,7.90
2015,04,03,15,18,7.90
2015,04,03,15,19,8.00
2015,04,03,15,20,8.00
2015,04,03,15,21,8.10
2015,04,03,15,22,8.10
2015,04,03,15,23,8.10
2015,04,03,15,24,8.10
2015,04,03,15,25,8.20
2015,04,03,15,26,8.20
2015,04,03,15,27,8.20
2015,04,03,15,28,8.20
2015,04,03,15,29,8.20
2015,04,03,15,30,8.20
2015,04,03,15,31,8.20
2015,04,03,15,32,8.20
2015,04,03,15,33,8.20
2015,04,03,15,34,8.20
2015,04,03,15,35,8.20
2015,04,03,15,36,8.30
2015,04,03,15,37,8.30
2015,04,03,15,38,8.30
2015,04,03,15,39,8.30
2015,04,03,15,40,8.30
2015,04,03,15,41,8.30
2015,04,03,15,42,8.30
2015,04,03,15,43,8.40
2015,04,03,15,44,8.30
2015,04,03,15,45,8.30
2015,04,03,15,46,8.30
2015,04,03,15,47,8.30
2015,04,03,15,48,8.40
2015,04,03,15,49,8.40
2015,04,03,15,50,8.40
2015,04,03,15,51,8.50
2015,04,03,15,52,8.50
2015,04,03,15,53,8.60
2015,04,03,15,54,8.80
2015,04,03,15,55,8.90
2015,04,03,15,56,9.00
2015,04,03,15,57,9.10
2015,04,03,15,58,9.20
2015,04,03,15,59,9.30
2015,04,03,16,00,9.30
2015,04,03,16,01,9.40
2015,04,03,16,02,9.50
2015,04,03,16,03,9.50
2015,04,03,16,04,9.60
2015,04,03,16,05,9.60
2015,04,03,16,06,9.60
2015,04,03,16,07,9.50
2015,04,03,16,08,9.40
2015,04,03,16,09,9.40
2015,04,03,16,10,9.30
2015,04,03,16,11,9.30
2015,04,03,16,12,9.30
2015,04,03,16,13,9.30
2015,04,03,16,14,9.20
2015,04,03,16,15,9.20
2015,04,03,16,16,9.20
2015,04,03,16,17,9.20
2015,04,03,16,18,9.20
2015,04,03,16,19,9.20
2015,04,03,16,20,9.20
2015,04,03,16,21,9.30
2015,04,03,16,22,9.30
2015,04,03,16,23,9.30
2015,04,03,16,24,9.30
2015,04,03,16,25,9.30
2015,04,03,16,26,9.30
2015,04,03,16,27,9.20
2015,04,03,16,28,9.20
2015,04,03,16,29,9.20
2015,04,03,16,30,9.20
2015,04,03,16,31,9.20
2015,04,03,16,32,9.20
2015,04,03,16,33,9.20
2015,04,03,16,34,9.10
2015,04,03,16,35,9.10
2015,04,03,16,36,9.10
2015,04,03,16,37,9.00
2015,04,03,16,38,9.00
2015,04,03,16,39,8.90
2015,04,03,16,40,8.90
2015,04,03,16,41,8.80
2015,04,03,16,42,8.80
2015,04,03,16,43,8.80
2015,04,03,16,44,8.70
2015,04,03,16,45,8.70
2015,04,03,16,46,8.60
2015,04,03,16,47,8.60
2015,04,03,16,48,8.60
2015,04,03,16,49,8.60
2015,04,03,16,50,8.60
2015,04,03,16,51,8.60
2015,04,03,16,52,8.60
2015,04,03,16,53,8.70
2015,04,03,16,54,8.70
2015,04,03,16,55,8.70
2015,04,03,16,56,8.70
2015,04,03,16,57,8.70
2015,04,03,16,58,8.70
2015,04,03,16,59,8.70
2015,04,03,17,00,8.70
2015,04,03,17,01,8.70
2015,04,03,17,02,8.60
2015,04,03,17,03,8.60
2015,04,03,17,04,8.60
2015,04,03,17,05,8.60
2015,04,03,17,06,8.60
2015,04,03,17,07,8.70
2015,04,03,17,08,8.70
2015,04,03,17,09,8.70
2015,04,03,17,10,8.70
2015,04,03,17,11,8.70
2015,04,03,17,12,8.70
2015,04,03,17,13,8.60
2015,04,03,17,14,8.60
2015,04,03,17,15,8.50
2015,04,03,17,16,8.30
2015,04,03,17,17,8.10
2015,04,03,17,18,7.90
2015,04,03,17,19,7.70
2015,04,03,17,20,7.50
2015,04,03,17,21,7.30
2015,04,03,17,22,7.10
2015,04,03,17,23,7.00
2015,04,03,17,24,6.80
2015,04,03,17,25,6.70
2015,04,03,17,26,6.60
2015,04,03,17,27,6.50
2015,04,03,17,28,6.40
2015,04,03,17,29,6.30
2015,04,03,17,30,6.30
2015,04,03,17,31,6.20
2015,04,03,17,32,6.20
2015,04,03,17,33,6.20
2015,04,03,17,34,6.10
2015,04,03,17,35,6.10
2015,04,03,17,36,6.10
2015,04,03,17,37,6.10
2015,04,03,17,38,6.10
2015,04,03,17,39,6.10
2015,04,03,17,40,6.10
2015,04,03,17,41,6.10
2015,04,03,17,42,6.10
2015,04,03,17,43,6.10
2015,04,03,17,44,6.10
2015,04,03,17,45,6.10
2015,04,03,17,46,6.10
2015,04,03,17,47,6.10
2015,04,03,17,48,6.10
2015,04,03,17,49,6.10
2015,04,03,17,50,6.10
2015,04,03,17,51,6.10
2015,04,03,17,52,6.10
2015,04,03,17,53,6.10
2015,04,03,17,54,6.20
2015,04,03,17,55,6.20
2015,04,03,17,56,6.20
2015,04,03,17,57,6.20
2015,04,03,17,58,6.20
2015,04,03,17,59,6.20
2015,04,03,18,00,6.20
2015,04,03,18,01,6.20
2015,04,03,18,02,6.20
2015,04,03,18,03,6.30
2015,04,03,18,04,6.30
2015,04,03,18,05,6.30
2015,04,03,18,06,6.30